GEFSMW_500_meanwind_000.txt.gz
Wind_Speed
74 76 78 80 82 82 83 79 71 60 58 60 59 57 49 45 43 44 47 48 52 60 76 90 91 89 89 88 86 85 82 79 74 73 72 70 69 68 68 67 66 66 65
75 76 78 82 84 83 79 70 58 55 57 56 55 51 45 43 43 43 45 47 49 51 56 68 86 95 93 92 91 88 85 81 79 76 74 72 70 69 69 68 68 68 67
77 78 79 82 81 77 70 58 52 54 57 58 58 55 51 49 48 46 45 46 47 49 50 55 66 84 96 96 94 92 90 85 81 79 77 75 72 71 71 69 68 68 69
76 79 81 81 77 74 63 53 53 57 61 63 63 61 57 56 55 52 48 45 45 47 49 49 50 63 81 93 97 96 94 91 86 82 81 80 77 75 73 72 70 69 70
79 82 80 77 73 67 56 52 56 61 65 67 66 64 60 60 61 58 52 46 44 44 44 43 43 45 59 73 85 94 95 94 91 86 84 84 81 78 76 73 72 70 70
82 81 77 71 65 58 53 55 60 65 67 68 66 62 58 56 57 56 52 46 42 40 39 39 38 38 41 51 63 75 86 91 92 90 88 87 86 83 80 78 74 73 72
82 77 71 64 58 55 56 61 65 67 67 66 64 61 56 53 52 51 50 47 42 38 35 35 36 35 34 36 46 56 65 78 86 89 88 88 88 86 84 84 80 76 74
78 73 65 59 57 58 62 65 66 66 64 59 56 53 50 49 48 47 47 45 43 40 35 32 33 33 33 32 34 40 49 57 68 78 84 86 87 87 86 86 85 82 79
74 66 61 61 62 65 66 65 63 59 55 51 49 49 48 46 45 44 44 42 41 40 38 34 30 31 32 32 31 33 37 43 51 58 68 77 82 86 87 89 89 86 84
68 62 62 65 67 67 64 61 56 52 50 50 50 49 48 46 44 44 44 43 41 39 40 39 34 32 33 34 34 34 36 37 40 45 53 62 70 77 81 85 87 88 87
64 63 66 68 68 65 61 55 52 49 48 48 48 48 50 50 48 47 46 45 44 41 39 40 40 37 35 35 37 35 35 36 37 38 41 48 54 62 71 77 81 84 86
64 66 68 68 64 59 55 52 49 49 51 51 50 50 51 52 52 50 48 45 44 43 41 39 41 42 41 38 37 36 34 36 37 37 37 40 42 45 51 60 71 79 83
66 69 69 65 59 54 52 49 49 52 55 55 54 54 54 54 52 49 47 45 43 41 40 38 38 41 44 44 41 38 37 38 38 39 38 38 39 39 41 47 55 65 75
67 69 66 60 55 52 51 50 52 55 58 57 56 56 53 51 50 48 46 44 42 38 34 34 34 36 42 47 45 44 42 41 40 40 42 42 41 42 42 43 47 53 61
68 68 62 55 52 51 51 52 54 58 59 57 57 53 50 51 51 48 45 41 38 35 30 28 29 31 36 45 46 46 45 44 44 44 43 44 43 42 43 46 48 50 56
68 64 56 52 50 51 52 54 56 59 58 58 55 51 53 53 53 50 46 42 38 34 29 26 25 27 32 38 45 47 46 45 45 45 44 44 42 41 45 49 48 47 53
66 58 52 50 50 52 53 55 58 60 60 58 53 54 56 56 55 52 49 47 43 37 32 27 23 24 30 33 39 44 44 42 42 42 42 41 40 39 35 35 36 38 49
61 54 50 50 52 54 54 56 61 61 61 56 53 57 57 56 56 53 51 51 50 42 33 28 23 22 28 31 33 38 38 40 40 40 40 37 35 36 35 39 40 39 47
57 52 51 52 54 55 55 57 62 63 61 55 55 58 57 55 55 54 54 56 54 44 34 26 22 21 25 29 31 35 38 40 42 42 40 38 38 36 41 46 40 39 48
53 51 52 54 55 55 56 59 63 63 60 54 57 59 58 57 58 58 60 61 55 41 30 23 20 19 21 26 30 35 38 42 43 44 44 45 46 40 40 41 37 38 44
51 52 53 55 56 55 56 59 62 62 58 56 58 60 59 60 61 62 66 64 50 34 26 21 17 16 19 23 29 33 37 41 44 45 46 49 50 47 42 39 40 40 41
50 51 53 55 56 55 56 59 61 61 58 57 57 59 60 62 63 65 68 63 43 29 22 18 15 13 16 21 26 27 32 37 43 46 46 48 51 51 47 43 42 42 43
49 51 53 55 56 55 56 59 60 59 58 56 56 58 61 63 66 68 70 62 43 30 21 17 14 13 13 18 22 24 29 37 41 46 46 47 48 50 51 48 46 44 43
48 50 52 54 54 54 56 59 59 58 57 56 56 58 61 62 66 70 72 65 46 33 23 16 14 12 12 14 16 20 25 30 38 43 46 47 47 47 49 51 51 48 46
47 49 51 52 53 53 55 57 58 57 57 56 56 58 60 62 65 69 72 69 53 39 28 18 13 12 12 12 14 16 19 24 30 40 44 46 48 47 47 48 50 52 50
46 48 51 51 51 52 54 57 57 58 57 56 56 59 60 60 62 66 70 70 62 45 33 23 15 10 11 11 13 14 14 18 22 30 40 44 47 49 49 48 48 49 53

GEFSMW_500_meanwind_006.txt.gz
Wind_Speed
70 73 76 79 82 85 87 87 86 82 76 72 68 66 64 64 64 65 65 65 65 64 62 60 58 58 57 55 54 53 57 71 85 90 91 89 87 86 85 82 79 76 73
74 76 79 81 84 85 86 85 81 77 75 73 72 70 68 66 65 64 63 63 63 63 62 62 60 59 59 58 56 53 50 54 69 84 92 93 89 88 86 85 82 80 77
77 78 81 83 84 84 83 81 79 78 75 70 65 60 55 52 51 50 50 50 50 51 53 56 58 59 58 59 59 56 52 49 53 67 85 94 94 90 87 86 84 83 82
78 80 83 85 85 84 82 81 79 74 66 60 56 53 51 50 49 48 48 47 46 45 45 46 48 52 54 56 60 60 55 52 49 52 67 86 95 94 90 87 85 83 82
80 82 84 86 85 82 81 79 72 64 59 56 54 53 53 55 55 53 51 48 47 45 44 44 44 44 47 51 56 60 58 54 51 48 52 70 89 96 93 88 87 85 82
81 83 85 84 82 82 80 72 65 60 57 56 55 56 57 58 57 55 52 49 47 46 46 44 44 44 43 46 51 56 58 55 52 49 47 55 75 93 97 93 88 86 81
82 84 84 82 81 81 74 66 62 60 58 57 57 58 59 60 58 55 51 48 46 45 45 44 43 43 43 43 46 52 55 54 51 49 48 49 60 82 96 97 92 88 83
82 84 83 81 81 76 68 64 62 61 60 59 58 60 61 59 55 51 48 46 45 44 44 43 42 41 41 41 42 46 51 53 50 48 47 47 51 66 88 98 97 92 88
83 83 81 81 78 70 65 64 63 61 60 59 59 61 61 56 51 48 48 47 46 46 45 43 41 39 38 39 40 42 46 50 48 45 44 43 45 52 72 91 98 97 92
82 80 80 80 73 66 64 64 63 62 60 59 61 61 57 52 50 50 50 48 46 45 43 41 40 37 35 37 38 40 42 45 45 43 40 39 41 44 55 75 91 97 96
80 79 80 76 68 64 63 63 63 62 61 61 60 58 55 52 51 51 50 49 47 45 42 40 39 37 33 34 36 38 38 40 43 41 39 37 37 40 45 57 75 89 95
79 80 78 71 65 63 63 63 63 63 62 61 58 56 54 53 52 52 51 51 49 47 45 43 40 38 34 32 33 35 35 36 40 41 39 37 36 37 41 47 60 75 88
79 78 73 67 63 63 63 63 63 63 62 59 57 56 54 53 54 55 55 54 53 52 49 48 45 40 35 31 30 31 32 33 37 39 39 37 36 36 37 42 50 63 76
78 75 70 64 62 62 63 63 63 63 60 58 57 56 56 56 57 57 58 58 58 56 55 51 45 39 34 30 29 29 29 30 34 38 39 37 36 35 35 38 44 54 65
76 72 66 62 61 61 62 63 63 61 58 57 56 57 58 59 60 60 61 62 63 61 57 49 40 33 29 27 27 27 27 27 31 35 38 38 35 35 35 36 38 46 55
75 70 63 60 60 61 62 63 63 60 57 56 57 59 61 61 61 62 63 66 66 61 51 39 28 23 23 23 24 26 26 25 29 33 36 37 36 35 35 35 36 40 46
73 66 60 58 60 62 63 63 62 58 55 55 58 61 63 63 63 64 67 69 67 57 43 28 16 13 18 21 23 25 24 24 27 32 35 37 37 36 37 37 36 38 41
70 64 58 57 60 62 62 62 61 57 55 56 60 63 65 65 65 67 70 70 64 51 36 21 8 9 15 19 21 22 21 21 25 31 35 36 38 38 38 38 38 38 39
69 63 57 56 60 62 62 61 60 57 55 56 60 64 66 66 67 69 72 71 60 46 31 17 5 8 13 17 19 18 18 19 24 31 35 36 37 39 39 39 39 39 40
68 62 56 55 59 62 61 61 60 57 55 56 61 65 67 67 68 71 74 72 60 44 30 17 5 6 11 14 16 15 16 19 24 31 36 38 38 38 38 39 39 39 40
68 61 56 55 59 61 61 60 60 58 56 57 61 64 67 68 69 71 75 74 62 46 32 19 8 4 7 10 12 11 13 17 24 32 37 39 39 38 38 38 38 38 38
67 61 56 55 57 60 60 59 60 58 56 57 60 63 66 68 69 71 73 75 67 50 36 23 12 5 4 6 7 7 8 13 22 32 38 41 42 41 40 39 38 38 37
66 61 55 54 56 58 59 58 59 58 56 57 59 61 64 68 69 69 71 74 72 59 43 31 18 9 5 4 5 4 4 8 17 28 38 41 43 44 43 41 40 39 38
65 60 55 53 54 57 58 57 57 58 57 57 57 59 62 66 68 69 70 72 74 69 55 40 27 16 10 7 6 5 3 4 11 23 34 40 43 45 45 43 42 41 40
64 60 55 52 53 55 56 56 56 57 57 56 56 57 60 63 67 69 70 71 73 74 67 53 39 26 16 11 9 7 4 2 6 17 28 37 41 44 46 45 44 42 41
64 60 55 51 51 53 54 54 54 56 56 56 56 56 57 60 63 67 69 69 69 70 70 65 55 41 28 18 13 9 7 4 3 10 21 32 39 43 46 47 47 45 43

GEFSMW_500_meanwind_012.txt.gz
Wind_Speed
60 66 72 76 78 81 85 88 90 90 87 79 72 68 67 68 67 66 64 62 60 59 58 57 57 57 57 57 59 63 68 71 72 70 70 72 79 86 91 94 95 93 90
63 69 74 76 79 83 86 88 89 86 80 74 71 70 70 68 65 62 59 57 55 54 52 51 50 50 51 53 55 57 62 68 73 73 71 69 71 77 83 90 95 96 93
66 71 74 77 80 83 86 87 86 81 75 71 70 70 69 64 58 53 51 51 49 48 47 45 44 43 43 44 47 51 55 60 66 74 75 73 71 72 77 83 91 96 96
68 72 74 77 81 84 86 86 82 76 72 71 72 71 65 58 52 49 48 49 49 48 47 45 44 42 41 41 41 43 48 52 58 66 74 76 74 72 74 79 85 93 97
69 71 74 78 82 85 85 83 77 72 71 72 72 69 61 53 49 49 50 51 51 51 50 48 46 44 43 42 41 40 42 45 51 57 66 74 76 74 73 75 81 88 96
69 71 75 79 83 84 83 78 73 71 72 72 71 66 56 50 49 51 52 53 53 53 52 51 49 47 45 43 42 41 40 41 44 50 58 68 76 77 74 72 75 83 91
69 73 77 80 82 83 80 75 71 71 72 71 69 62 54 50 52 55 56 56 55 55 54 53 51 50 47 45 43 41 40 39 40 44 51 59 70 76 76 73 71 75 84
71 74 77 80 82 81 78 73 70 71 72 70 67 59 53 53 56 59 60 60 59 58 57 55 53 51 49 46 43 42 40 37 37 40 46 52 61 72 75 75 71 69 75
72 74 77 80 81 80 75 71 70 72 71 70 65 58 54 56 59 62 64 64 64 62 61 58 56 52 50 47 44 42 40 37 35 36 41 47 53 63 72 75 73 69 68
72 74 77 79 80 77 73 70 71 72 71 69 65 59 56 59 62 65 66 67 67 67 65 62 58 55 51 49 45 42 39 36 33 33 37 43 47 55 66 72 74 70 65
72 74 77 79 79 75 70 68 70 70 69 68 64 59 59 61 64 67 69 70 72 71 66 61 54 49 45 43 41 40 37 34 32 31 33 39 44 50 60 68 72 70 63
71 74 77 78 77 73 69 68 69 69 68 67 63 60 60 62 65 69 71 74 74 70 61 49 39 32 27 28 30 31 31 30 29 28 30 36 41 46 54 63 68 68 64
71 73 76 77 75 71 68 67 68 67 67 67 64 61 61 63 67 70 73 76 73 63 49 35 23 16 11 10 14 19 22 24 25 26 28 33 38 42 49 58 64 65 63
70 72 74 76 73 70 67 67 67 66 66 67 65 62 62 64 68 71 75 77 70 57 39 24 17 14 11 7 2 7 13 18 20 23 26 30 35 39 45 53 59 61 59
69 71 73 74 72 69 66 66 66 65 66 66 65 64 64 66 69 72 76 77 68 53 35 16 11 11 11 11 6 2 7 12 16 20 24 28 33 37 41 48 53 56 56
68 70 73 73 71 68 66 65 65 64 65 66 66 65 65 66 69 72 76 77 67 51 35 17 3 5 6 7 3 1 3 7 12 17 22 27 31 34 38 43 48 50 51
67 69 72 72 70 67 65 65 64 63 64 65 66 66 66 67 70 72 76 77 69 53 38 23 10 2 4 3 3 4 3 4 8 14 21 26 29 32 36 40 43 44 44
67 68 70 71 69 66 65 64 63 62 63 64 66 66 66 67 69 71 74 77 71 57 41 29 18 8 4 6 6 6 6 4 7 13 20 25 28 31 34 36 38 39 38
66 67 69 70 69 66 64 63 62 61 62 63 65 66 65 66 68 70 73 75 74 63 47 35 26 17 11 8 8 7 5 4 7 13 20 24 28 30 32 33 34 34 33
66 66 68 69 68 65 62 61 61 60 61 62 64 64 64 65 66 69 71 74 75 70 57 42 32 24 18 14 11 8 6 3 7 12 18 24 28 30 31 30 30 30 29
66 65 66 67 66 64 61 60 60 59 60 61 63 63 62 63 64 67 70 72 73 72 66 53 40 31 24 19 14 10 7 4 4 10 16 22 27 30 30 29 28 27 26
65 65 65 65 65 63 60 59 58 58 58 60 61 61 60 61 62 64 67 69 70 70 70 64 51 39 31 24 19 14 9 5 1 7 13 20 26 29 30 29 28 27 25
65 63 63 64 64 62 59 57 57 56 57 58 58 58 59 59 59 61 63 66 67 68 69 68 63 52 40 30 24 19 13 8 4 3 10 18 24 28 29 29 28 27 25
64 62 62 63 62 61 58 56 55 54 55 55 55 56 56 57 58 59 60 62 64 66 67 67 66 62 53 41 30 23 18 13 7 0 7 15 22 27 28 29 28 27 25
63 62 61 61 61 60 58 55 53 52 53 53 53 53 54 55 57 58 58 59 61 63 64 65 65 64 62 55 43 31 23 17 12 5 3 12 20 25 28 28 28 27 26
63 61 59 60 60 59 57 54 51 50 50 50 51 50 51 52 54 56 57 58 58 59 60 62 63 63 62 61 56 45 32 23 16 11 3 7 16 24 28 28 29 28 27

GEFSMW_500_meanwind_018.txt.gz
Wind_Speed
51 53 56 59 64 68 71 73 77 81 84 86 88 87 83 79 78 77 76 73 67 61 56 53 53 53 54 54 54 52 50 49 48 47 50 59 69 77 85 93 100 105 106
52 55 58 62 66 69 72 74 78 81 85 88 89 86 80 78 77 75 74 71 65 60 57 56 57 58 59 59 59 58 55 52 52 49 46 49 60 71 80 88 95 102 107
54 56 59 63 67 69 72 75 79 83 87 88 87 82 78 76 75 73 71 67 63 60 59 60 61 63 64 64 64 63 60 56 54 53 49 46 51 62 73 83 90 97 104
55 57 61 64 67 70 73 77 81 85 88 87 84 81 78 76 75 74 70 65 61 61 62 64 67 69 70 70 69 67 64 60 56 54 52 49 46 54 64 76 85 91 98
55 57 61 65 68 71 75 78 82 86 87 86 83 79 78 77 76 73 68 62 60 62 66 69 73 74 74 73 72 69 66 62 58 54 53 51 48 48 57 67 78 87 92
55 58 62 66 69 72 76 79 83 86 86 84 81 78 77 76 75 71 65 62 63 67 72 75 75 73 71 69 67 65 63 60 57 53 51 50 48 48 49 59 70 81 87
54 58 63 67 70 73 76 79 83 85 84 82 79 77 77 76 74 70 66 66 69 75 78 75 68 62 57 53 52 52 53 53 52 50 49 48 47 47 47 52 62 74 83
54 59 63 67 71 73 76 79 83 84 83 80 77 76 76 75 73 70 69 72 77 81 78 70 61 53 46 41 36 34 37 41 44 44 44 44 45 45 46 48 56 67 78
54 59 64 68 71 74 76 80 83 83 81 78 75 74 75 74 71 69 71 75 81 82 76 65 55 47 42 36 29 22 21 28 34 37 38 40 41 42 44 45 50 61 72
54 59 64 68 71 74 76 80 82 81 79 76 74 74 74 73 71 70 72 77 81 79 71 59 50 44 39 34 26 15 7 15 23 29 32 34 36 38 40 43 46 55 67
55 60 65 68 71 73 76 79 81 80 76 74 72 72 72 72 71 71 73 78 80 76 66 54 46 40 36 32 28 19 8 5 14 21 26 29 32 34 37 40 44 50 61
55 60 65 68 71 73 76 78 79 78 74 72 71 71 71 71 70 71 73 78 79 73 62 50 41 36 32 30 27 23 14 6 6 13 19 24 28 30 33 37 41 46 55
56 60 65 69 71 73 75 77 78 76 72 70 69 69 69 70 70 71 73 76 78 72 60 47 38 32 28 26 24 20 14 7 2 8 14 20 24 27 29 33 37 42 49
56 60 65 69 71 72 75 76 76 74 71 68 68 67 68 69 70 71 72 75 77 73 62 47 36 29 25 22 19 16 11 5 2 8 13 17 21 23 26 29 33 38 45
56 60 65 69 71 72 74 75 75 73 70 68 67 66 66 67 69 70 71 73 76 75 67 52 38 29 24 21 17 14 10 6 6 9 12 16 18 20 22 26 30 35 41
56 60 65 69 70 71 73 74 73 72 69 67 65 64 64 66 68 70 70 71 73 75 71 60 45 33 26 22 18 15 12 9 8 9 11 13 15 17 19 23 27 33 39
57 60 65 68 70 70 71 72 72 71 69 66 64 63 63 64 67 68 69 69 71 73 73 67 54 41 32 26 21 18 14 12 9 9 9 10 12 14 17 20 25 30 36
57 60 64 68 69 69 70 70 71 70 68 65 63 62 62 63 64 66 67 67 68 70 71 70 63 50 39 32 26 22 17 14 10 7 6 6 9 12 15 19 23 28 34
58 60 64 67 68 68 68 69 70 69 67 64 62 61 61 61 62 64 65 65 66 67 69 70 68 59 47 37 31 26 21 17 12 7 3 3 7 11 15 18 22 26 32
59 60 63 66 67 67 67 68 69 68 66 63 60 60 59 60 60 61 63 64 64 65 67 68 69 66 56 44 36 30 25 20 15 9 4 3 8 12 16 19 22 25 31
61 60 63 66 67 67 66 67 68 67 66 63 59 58 58 58 59 59 61 62 63 63 64 66 67 67 63 53 42 35 29 22 16 11 6 7 10 14 17 19 21 25 30
62 61 62 65 66 66 65 66 66 66 65 62 59 57 57 57 57 57 58 59 60 61 61 62 64 65 64 60 50 41 34 27 19 13 9 9 12 16 18 20 21 24 29
64 61 61 64 65 65 64 64 65 65 63 62 59 57 56 55 55 55 56 56 58 58 58 59 61 63 63 62 57 49 40 31 23 15 11 11 14 17 18 20 21 24 27
66 61 61 63 64 64 63 63 63 63 62 60 58 56 55 54 54 54 54 54 55 56 56 57 58 59 61 62 62 56 46 36 27 18 12 12 14 17 18 19 20 22 24
67 62 60 61 63 63 62 61 62 62 61 59 58 56 54 53 53 53 53 53 54 55 56 56 56 56 58 60 61 59 53 43 33 23 14 11 13 15 16 17 19 20 21
68 62 59 60 62 62 61 60 60 60 60 58 57 55 53 51 50 51 52 53 53 53 54 55 55 55 56 57 57 57 55 50 40 28 18 11 10 13 14 15 17 18 19

GEFSMW_500_meanwind_024.txt.gz
Wind_Speed
38 41 43 46 49 52 56 59 63 67 70 73 77 82 86 90 93 90 85 80 78 78 78 78 75 73 74 75 75 74 73 73 72 68 66 65 65 64 63 61 63 73 86
39 42 45 47 51 54 57 61 64 68 71 75 79 82 87 90 90 86 81 78 78 78 78 76 74 75 76 73 70 68 67 67 71 73 71 69 68 69 65 62 61 64 76
40 43 45 48 52 55 58 62 66 69 72 76 80 83 88 90 87 82 78 77 78 79 77 75 76 77 73 68 64 61 59 58 60 66 71 73 73 72 68 66 63 61 65
41 43 46 49 53 55 59 63 67 70 73 76 80 84 87 87 84 79 77 77 78 77 75 76 77 75 68 62 57 53 50 48 48 53 61 69 72 73 70 69 66 62 61
41 44 47 50 53 56 59 64 68 70 73 77 80 84 86 85 81 77 76 76 77 75 74 76 76 70 62 57 54 49 43 38 36 38 46 57 66 70 70 68 67 64 61
42 45 48 51 53 56 60 64 68 71 73 77 81 84 85 82 79 76 75 75 75 73 74 76 73 64 57 53 50 46 39 32 26 25 30 40 53 63 67 67 65 64 63
45 47 49 51 53 56 60 65 68 70 73 77 81 84 83 80 77 74 74 74 73 72 73 75 70 59 52 47 44 40 36 31 23 16 15 25 38 50 58 62 63 62 62
49 50 51 53 54 57 61 65 68 70 73 77 80 83 82 79 75 73 73 73 72 71 73 75 68 56 48 42 37 33 32 30 26 18 8 11 25 38 48 55 58 59 60
54 55 55 55 55 58 61 65 68 70 73 76 80 82 80 77 74 72 72 72 71 70 73 74 68 54 45 38 33 28 26 25 23 19 11 3 14 27 38 46 52 55 57
58 59 58 57 57 59 62 66 68 69 72 76 79 81 79 75 72 71 71 71 70 69 72 74 69 55 45 36 30 25 20 18 16 13 9 4 7 18 29 38 45 50 53
60 62 62 61 59 60 63 66 68 69 72 76 79 79 78 74 71 70 69 69 69 68 70 73 70 57 46 37 30 25 20 16 12 9 7 5 7 13 22 30 37 44 49
62 64 66 65 63 62 64 66 68 69 72 75 78 78 77 73 70 68 68 68 68 67 69 72 71 61 49 40 32 26 22 19 15 13 10 9 10 13 18 25 31 37 43
64 66 68 68 66 64 65 67 68 69 72 75 77 78 76 72 69 67 67 67 67 66 68 70 71 65 54 44 35 29 24 21 19 16 14 13 12 14 17 21 26 32 37
64 68 70 71 69 66 66 67 68 69 71 74 77 77 75 71 68 66 66 66 66 65 66 69 70 68 60 50 40 33 27 23 20 18 16 15 14 15 17 20 23 28 32
64 68 71 73 72 69 67 68 68 68 70 73 76 76 75 71 67 65 64 64 65 65 65 67 69 68 64 56 47 37 30 25 21 18 15 13 13 14 16 18 21 24 29
65 69 72 73 74 72 68 68 68 68 69 72 75 75 74 71 67 64 63 63 64 64 65 66 68 68 65 59 50 41 33 27 22 17 13 10 9 11 13 16 18 21 25
66 69 72 74 76 74 70 68 68 68 69 71 73 74 74 71 66 63 62 62 62 63 63 64 66 67 65 60 52 44 36 29 23 18 13 8 5 5 8 12 15 18 21
65 68 71 74 76 76 72 69 68 68 68 70 72 73 73 70 66 63 61 61 61 61 62 63 64 66 65 61 53 46 39 31 25 19 15 10 5 1 3 7 11 15 19
64 68 71 73 76 77 75 70 68 68 68 69 71 72 72 69 66 62 60 60 60 60 60 61 62 64 65 62 55 48 41 34 27 21 17 13 10 6 4 3 6 10 15
63 67 70 73 75 77 76 71 68 67 67 68 69 71 71 69 65 62 60 59 59 59 59 60 60 61 62 62 57 50 43 35 28 23 20 16 14 11 8 6 4 6 10
62 66 70 71 74 76 76 72 68 67 66 66 68 70 69 68 65 62 60 58 57 58 58 58 58 59 59 60 59 52 43 35 29 24 22 19 17 15 13 10 7 5 6
60 64 68 70 73 75 75 72 68 66 65 65 66 68 69 67 65 61 59 57 56 55 55 55 55 55 56 57 58 54 44 36 29 24 21 19 18 17 15 13 11 8 6
58 62 67 69 71 73 74 72 69 66 64 64 64 66 68 67 65 61 58 56 54 53 52 52 52 52 53 53 54 54 47 37 29 24 21 19 18 17 16 14 13 11 9
56 60 65 67 69 71 72 72 69 65 63 62 63 64 66 67 65 61 58 55 53 51 50 50 50 50 50 51 51 51 50 42 31 24 20 18 17 16 16 15 14 12 11
54 58 63 66 67 69 70 71 69 65 62 61 61 62 64 65 65 63 58 55 53 51 50 49 48 47 48 48 49 49 48 46 38 27 20 17 15 15 15 15 14 13 12
53 56 61 64 65 67 68 69 68 64 62 60 59 60 62 63 64 63 60 55 52 51 50 48 47 46 46 46 46 46 45 45 43 35 23 17 14 12 12 12 13 13 13

GEFSMW_500_meanwind_030.txt.gz
Wind_Speed
31 33 36 39 41 43 45 47 49 50 51 54 57 61 64 68 71 77 82 89 94 96 92 85 79 78 77 76 76 75 71 65 61 57 55 54 56 57 60 64 71 76 79
34 36 39 41 44 46 48 49 50 51 52 54 58 62 65 69 73 78 84 91 94 93 87 81 77 77 76 75 75 74 68 61 58 57 56 53 48 48 52 58 65 73 79
37 39 42 44 46 49 51 53 54 55 55 57 60 63 67 70 75 80 86 91 93 89 83 78 76 75 75 74 74 72 66 59 54 54 55 54 46 36 37 48 58 69 76
39 42 44 46 49 51 54 57 59 60 60 60 62 65 69 72 76 81 87 91 90 85 79 76 76 74 74 74 73 70 64 58 52 49 47 47 45 35 24 34 48 61 72
39 43 46 49 51 53 56 59 63 64 64 63 64 67 70 73 77 83 87 89 87 82 77 75 75 74 74 73 72 67 61 55 50 46 43 39 37 33 22 18 34 50 64
39 44 47 50 53 56 59 62 65 68 69 67 67 69 72 74 78 83 87 88 84 79 75 74 74 74 73 73 71 65 59 52 46 41 38 36 33 29 22 13 19 36 53
40 44 48 52 55 58 61 64 66 70 72 71 70 71 73 75 79 83 87 86 82 77 73 72 72 73 73 72 69 64 57 50 43 38 34 31 28 26 21 14 9 24 41
41 45 49 53 56 60 62 65 68 71 74 74 73 73 74 76 79 83 86 85 81 75 72 71 71 72 72 72 68 63 56 48 41 36 32 28 25 22 19 14 8 15 31
41 45 49 53 57 61 64 66 69 72 75 76 75 74 75 77 80 83 86 84 80 74 71 70 71 71 72 71 68 63 56 48 41 35 31 27 23 20 17 13 9 12 24
43 46 50 54 58 61 65 67 70 72 75 78 77 76 76 77 79 83 85 83 79 73 70 70 70 70 71 70 67 62 56 49 42 37 32 27 23 20 17 14 11 12 21
45 48 51 54 58 61 65 68 70 73 76 78 79 77 76 77 79 82 84 82 78 72 69 69 69 70 70 70 66 62 56 48 42 38 34 28 23 19 17 16 14 14 20
47 50 52 55 58 61 65 68 70 73 75 78 80 78 77 76 78 81 83 81 76 72 68 68 68 69 69 69 65 60 55 49 43 39 34 29 23 18 17 16 15 15 18
48 51 53 55 58 61 64 67 70 72 75 78 80 79 77 76 78 81 82 80 75 71 67 67 67 67 68 68 64 59 55 49 44 40 35 30 24 18 16 15 15 15 16
49 52 55 56 58 61 63 66 69 72 74 77 79 79 78 76 77 80 81 79 75 70 66 65 65 65 66 67 63 57 54 50 45 41 36 31 25 19 15 13 13 13 15
51 54 56 57 58 61 63 65 68 71 73 76 78 79 78 77 76 78 80 78 74 69 65 64 64 64 64 65 63 57 54 50 46 42 38 34 28 22 17 13 11 11 13
53 55 57 58 59 60 62 64 67 70 72 74 77 79 78 77 76 77 78 78 74 68 64 63 62 62 62 63 63 58 53 49 46 43 39 35 31 25 20 15 11 9 10
53 56 58 59 60 60 61 62 65 69 71 73 76 78 78 76 75 75 77 77 74 69 63 61 60 60 60 61 61 58 51 47 44 41 39 37 33 28 22 17 13 8 7
54 57 59 60 60 60 59 61 64 67 70 72 74 76 77 76 74 74 75 76 74 69 63 60 58 58 58 58 59 57 51 46 42 40 38 37 34 30 25 20 15 10 5
56 57 59 60 59 59 58 59 62 65 69 70 72 74 75 75 74 73 74 75 73 69 64 59 57 57 57 56 56 56 52 45 41 38 37 35 34 32 27 23 17 12 7
56 57 58 59 59 58 57 58 61 64 67 69 70 72 74 74 73 72 72 73 73 70 64 59 57 56 55 55 55 54 52 46 40 37 35 34 33 32 29 25 21 15 9
57 57 57 57 57 57 56 56 59 62 66 68 69 70 72 73 72 71 70 71 72 69 64 59 56 55 54 53 53 52 50 47 40 36 33 32 32 31 30 27 24 18 12
58 56 56 56 55 56 55 55 57 61 64 67 68 68 70 71 71 69 69 69 70 69 64 58 55 53 53 52 51 51 49 47 42 35 31 30 29 29 29 28 26 22 16
58 57 56 55 54 55 55 55 56 60 63 66 66 66 67 69 69 68 67 67 68 67 64 58 54 51 51 50 50 49 48 46 44 37 31 29 28 27 28 27 27 24 20
60 59 58 56 55 55 55 55 56 59 61 64 65 65 65 67 67 66 65 64 66 66 64 59 53 50 49 49 48 47 46 45 43 40 34 29 27 26 26 26 26 25 21
62 61 60 59 57 56 56 56 57 59 61 63 64 63 62 64 65 64 63 62 63 65 64 60 53 49 47 47 47 46 45 43 42 40 38 32 27 25 24 24 24 24 22
63 62 62 61 59 57 57 57 57 59 60 62 62 61 60 61 62 62 61 60 61 63 64 60 54 49 46 46 46 45 43 42 41 40 39 35 28 24 22 21 21 21 20

GEFSMW_500_meanwind_036.txt.gz
Wind_Speed
12 15 18 21 24 27 30 34 37 40 42 45 46 48 49 52 54 57 60 62 63 65 67 71 76 81 87 92 93 91 86 83 80 77 72 67 64 61 58 58 57 55 54
15 18 21 24 26 29 32 35 38 42 45 47 49 51 53 54 57 59 62 64 66 67 70 73 78 84 89 91 90 87 83 80 77 76 73 67 58 53 52 53 53 52 50
18 20 23 26 28 31 34 37 40 43 46 49 52 54 55 57 59 62 65 67 69 70 72 76 80 86 89 89 87 84 81 77 74 74 73 69 61 53 45 44 46 48 46
20 23 25 28 30 33 36 39 41 45 48 51 53 56 58 59 61 64 67 69 71 72 74 77 82 86 88 87 84 80 78 76 73 70 69 66 63 58 49 39 39 42 42
24 26 28 30 33 36 38 41 43 46 49 52 55 57 59 61 63 65 68 71 72 74 76 79 83 86 87 84 80 78 76 74 73 69 66 62 58 56 54 45 36 34 36
27 29 31 33 36 38 41 43 45 48 50 53 55 58 60 63 65 67 69 72 74 75 77 80 83 85 84 81 78 75 73 72 70 68 65 61 57 53 50 46 38 32 29
31 32 34 36 38 41 43 45 47 49 51 54 56 58 60 63 66 68 70 73 74 76 78 81 83 84 82 78 75 73 71 70 68 65 63 60 56 54 51 47 39 31 26
34 34 36 38 40 43 45 47 49 51 53 55 57 58 61 63 66 69 71 73 75 76 78 80 82 82 80 76 73 71 70 68 66 63 61 58 55 53 51 47 41 31 23
36 37 38 40 42 45 47 49 51 53 54 55 57 59 61 63 66 69 71 73 75 77 78 80 82 81 78 74 71 69 68 66 64 61 58 56 54 52 50 46 42 34 24
39 40 41 42 45 47 50 51 53 55 56 56 57 59 61 63 65 69 72 73 75 77 78 79 81 80 77 73 69 68 66 64 62 59 56 54 52 51 48 45 41 35 27
41 42 44 45 47 49 52 54 56 57 58 57 58 59 60 62 65 68 72 73 75 76 77 78 79 78 76 71 68 66 65 63 60 57 54 53 51 50 47 44 41 36 30
44 45 47 48 50 52 54 56 58 59 59 58 58 59 60 62 64 67 71 73 74 75 76 77 78 77 74 70 67 65 64 61 58 54 52 51 49 48 46 43 40 36 31
47 48 49 51 52 54 55 58 59 60 59 58 58 58 60 61 64 66 70 73 74 75 75 76 77 76 73 69 66 64 63 60 57 53 50 48 47 46 45 43 39 35 31
49 51 52 53 54 55 57 59 60 59 59 58 58 58 60 61 63 66 69 72 73 74 74 74 76 75 72 68 65 63 62 59 56 52 49 47 45 44 44 42 39 35 31
51 52 53 54 55 56 57 59 59 59 58 58 58 58 59 61 63 66 69 71 72 73 73 73 74 74 71 67 64 62 61 59 56 52 48 45 43 42 42 41 38 34 30
51 53 54 55 55 57 58 59 59 58 58 59 59 59 60 61 63 65 68 70 71 72 72 72 72 72 70 66 63 61 60 59 56 52 47 44 42 41 40 40 38 35 31
52 53 54 55 56 57 58 59 58 59 59 59 60 59 61 62 64 65 67 69 69 70 71 70 70 70 69 65 61 59 59 58 55 52 48 43 41 39 38 38 37 35 31
53 54 56 57 58 58 59 59 59 60 61 61 61 61 62 63 64 66 67 68 68 69 69 69 68 68 67 64 60 57 57 56 55 52 48 43 40 38 37 36 36 34 32
56 58 59 60 60 60 60 61 61 62 63 63 62 62 64 65 65 66 66 67 67 67 68 68 66 66 66 63 59 56 55 54 53 51 49 44 39 37 36 35 34 33 32
60 61 61 62 62 63 63 63 63 63 65 64 64 64 64 66 66 66 65 65 66 66 66 66 65 64 64 62 59 56 54 53 51 50 48 45 39 36 34 34 33 32 30
63 64 64 65 65 65 65 65 65 65 65 65 64 64 64 65 65 64 64 64 64 64 63 63 63 62 62 61 58 55 53 51 50 49 47 44 40 35 33 33 33 32 30
66 67 67 67 66 66 66 66 66 66 66 65 64 64 64 63 63 62 62 63 62 61 61 61 61 60 60 59 56 54 52 51 49 48 46 44 40 35 32 32 32 31 30
66 67 67 66 65 64 64 64 64 65 64 63 63 63 62 61 61 60 60 61 59 58 58 59 58 58 58 57 55 52 50 49 48 47 46 44 41 36 32 30 30 30 29
63 63 62 60 60 60 60 59 60 61 61 60 60 59 59 58 58 57 58 59 57 56 55 56 55 55 55 54 53 50 48 47 47 46 45 44 42 38 33 30 29 29 28
56 56 57 57 56 57 56 56 56 56 56 55 55 55 55 55 55 54 54 55 55 53 52 53 53 52 52 52 50 47 45 45 45 44 44 43 42 39 35 30 27 27 27
52 53 53 53 52 52 52 51 51 51 51 51 51 51 52 52 51 50 49 50 51 50 49 50 50 50 50 50 48 46 44 43 43 43 42 42 40 38 35 30 26 25 24

GEFSMW_500_meanwind_042.txt.gz
Wind_Speed
22 22 23 24 26 28 30 31 32 33 34 35 37 38 41 43 45 48 50 52 53 54 55 56 57 57 59 61 62 65 68 71 73 76 78 82 85 87 86 85 84 83 83
24 25 26 27 29 31 33 34 35 36 38 39 40 41 43 46 48 51 53 54 56 57 58 58 59 59 61 62 64 66 70 73 77 79 82 83 84 85 83 80 79 78 78
27 27 28 30 32 34 36 37 38 40 41 42 43 45 47 49 51 54 56 57 58 59 60 61 61 62 63 64 65 68 71 75 79 82 85 87 87 86 80 75 73 73 72
29 30 31 33 35 37 38 40 41 42 44 45 47 48 50 52 54 56 58 60 60 61 62 62 63 64 65 65 67 70 73 76 80 83 86 87 88 87 83 73 69 68 68
31 32 34 36 38 40 41 43 44 45 46 48 49 51 53 55 57 59 60 62 62 62 63 64 65 65 66 66 68 71 75 78 81 83 84 85 85 85 84 76 67 63 63
33 34 37 39 40 43 44 45 47 47 49 50 52 54 56 57 59 61 63 63 63 63 64 65 66 66 66 67 69 73 76 79 81 83 83 83 82 81 80 76 69 63 59
36 38 40 42 43 45 47 48 49 50 52 53 55 56 58 60 61 63 64 64 64 64 65 66 67 67 67 68 71 74 77 80 81 81 81 80 80 79 77 75 70 64 58
40 42 44 46 47 48 49 50 51 53 54 55 57 59 60 62 63 65 65 65 65 65 66 66 67 67 67 69 72 75 78 80 80 79 78 77 77 76 75 73 70 65 58
43 46 48 50 51 52 52 52 54 55 56 57 59 60 61 63 64 65 65 65 66 66 67 66 67 68 68 70 73 75 78 79 78 77 76 75 74 73 72 70 68 66 61
45 48 51 53 54 54 55 55 56 57 58 59 60 61 62 64 65 66 66 66 66 66 67 67 68 68 69 71 73 75 77 78 77 75 74 72 72 70 69 67 65 63 61
47 49 51 53 55 55 56 56 57 57 58 59 61 62 63 64 66 66 67 67 67 67 67 67 67 68 69 71 73 74 76 76 74 73 72 70 70 68 67 65 63 61 59
47 48 49 50 52 53 54 55 56 57 58 59 61 62 64 65 66 67 67 68 68 67 67 67 67 67 69 70 71 73 74 74 73 71 70 68 68 66 65 63 61 59 57
49 49 50 51 51 52 53 54 55 56 58 59 61 63 65 66 67 67 67 68 68 67 67 67 67 67 67 69 71 72 72 72 71 69 68 67 66 64 63 61 60 57 54
51 51 52 52 53 53 54 54 55 57 58 60 62 64 66 67 67 67 67 67 66 66 66 65 65 65 66 68 70 70 70 70 69 67 66 65 64 63 61 59 58 55 52
54 54 53 53 54 54 54 55 56 58 60 62 63 65 66 67 68 67 66 65 64 64 63 63 63 63 64 67 68 68 68 68 67 65 64 63 63 61 60 59 58 55 51
56 56 55 55 55 56 57 58 59 61 62 63 64 66 67 67 67 66 64 64 63 62 61 61 61 62 63 65 66 66 66 66 65 63 62 61 61 60 58 57 57 54 51
58 57 57 58 58 59 60 61 62 63 63 64 65 65 65 65 64 63 62 61 61 59 58 58 59 60 61 63 64 63 64 64 63 62 61 59 59 58 56 55 54 51 49
60 61 61 61 61 62 63 63 63 63 63 63 63 63 63 61 61 60 59 58 57 55 55 56 57 57 58 60 60 60 61 61 61 60 59 58 56 56 55 53 52 50 47
63 64 65 64 63 63 63 62 62 61 62 61 60 60 59 58 57 56 54 53 52 52 52 53 54 55 57 58 58 58 59 59 58 57 57 56 55 54 53 52 51 48 44
64 64 63 62 62 61 61 60 59 59 58 57 55 55 54 54 52 51 49 49 49 50 50 50 52 53 54 55 56 56 57 57 55 54 54 54 53 53 52 51 51 47 43
60 60 60 59 59 58 57 55 54 54 53 51 51 50 50 49 48 47 46 46 47 47 47 48 49 51 52 53 53 54 55 55 53 52 52 51 51 51 50 49 49 47 42
57 56 55 54 53 53 52 50 50 50 49 49 49 49 48 47 45 44 44 45 44 44 45 46 48 49 50 51 51 52 53 53 51 50 50 49 49 49 48 47 47 45 40
51 50 50 49 48 48 48 48 48 49 47 47 48 47 45 45 44 43 43 43 43 44 45 46 47 48 48 49 49 49 51 51 50 49 48 48 47 47 46 45 45 42 39
48 48 47 46 45 45 46 47 47 47 47 46 45 45 45 45 45 44 44 44 43 44 45 45 45 46 47 47 47 48 49 49 48 47 47 46 46 45 45 44 44 41 37
47 47 45 44 45 45 46 48 48 48 47 47 47 47 46 46 47 47 46 45 45 45 44 44 44 45 45 45 45 46 47 47 45 45 45 44 44 43 43 43 42 39 35
47 46 46 46 47 48 49 50 49 49 49 49 49 49 49 49 50 49 48 47 47 46 44 43 43 43 43 44 43 44 45 44 43 42 42 42 42 41 40 40 39 37 33

GEFSMW_500_meanwind_048.txt.gz
Wind_Speed
30 29 29 29 29 30 31 32 33 34 35 35 37 38 39 41 42 44 46 47 48 49 50 52 53 55 56 58 60 60 60 59 59 59 59 59 60 62 64 65 67 69 71
32 32 31 32 32 32 33 35 36 37 38 39 41 41 43 44 45 47 49 51 51 52 54 55 56 58 59 61 62 62 60 60 60 60 61 61 62 61 63 65 67 69 71
32 33 34 34 35 35 37 39 40 41 42 43 45 45 46 47 48 51 53 54 55 56 57 58 59 60 62 63 64 63 61 61 61 61 62 63 64 65 64 65 67 70 71
33 34 35 36 37 39 41 43 44 45 46 48 48 49 50 51 52 54 55 57 58 59 59 60 61 62 63 64 64 63 61 61 62 62 63 64 65 65 65 66 68 69 71
33 34 36 38 40 42 44 46 48 49 50 51 52 53 53 54 56 57 58 59 60 61 62 63 63 63 64 64 64 62 61 62 62 63 63 64 65 66 66 66 67 69 71
32 34 36 39 41 44 46 48 50 51 52 53 54 55 56 57 58 59 60 61 62 63 63 64 65 65 65 65 64 63 62 62 62 63 64 64 65 66 67 67 67 68 71
33 34 36 38 40 43 45 47 49 51 52 54 55 56 57 58 59 60 61 62 62 62 63 64 65 65 65 65 64 64 63 62 62 63 63 64 65 67 68 69 68 69 70
34 35 36 38 40 42 44 46 48 50 52 53 54 56 57 58 59 60 62 62 62 62 63 64 65 66 66 65 65 63 63 62 62 63 63 64 66 67 69 70 70 70 70
37 38 39 40 41 42 43 45 47 49 50 52 53 54 56 57 58 60 60 61 61 62 64 64 65 66 66 65 64 63 62 62 62 62 63 65 66 68 70 70 71 71 71
40 41 41 42 42 43 44 45 46 48 49 51 53 54 55 56 58 59 60 60 62 63 64 65 65 66 65 64 64 62 61 61 61 62 64 65 68 69 69 70 71 72 73
43 43 43 43 43 44 45 46 47 48 49 51 52 52 54 55 57 58 60 62 63 63 64 65 65 65 64 64 63 61 60 60 60 62 64 66 68 68 69 70 70 71 73
47 47 46 46 46 46 47 48 48 49 49 50 51 52 53 55 57 59 62 63 63 64 64 64 64 64 63 63 61 60 59 59 60 62 64 66 67 68 68 69 69 70 72
51 51 50 50 49 49 49 49 49 49 49 50 50 51 53 56 58 60 62 63 63 63 63 63 62 62 61 60 59 58 57 58 60 62 64 65 66 66 67 68 68 69 71
53 53 52 52 51 51 50 50 50 50 50 51 52 53 55 57 59 60 61 62 62 62 62 61 60 59 58 58 57 56 57 58 59 62 63 64 65 65 66 66 67 68 69
52 52 52 51 51 50 50 50 51 51 52 52 53 55 56 58 59 60 60 60 60 59 58 57 56 56 56 55 55 55 56 57 59 61 62 63 63 64 65 65 65 67 68
49 49 49 50 50 51 51 51 52 53 53 54 55 56 57 57 57 57 56 55 55 54 53 53 54 54 53 53 53 54 55 57 58 60 61 62 62 63 64 64 64 65 66
46 47 48 49 50 51 52 52 53 53 54 55 55 55 55 54 53 52 51 51 51 49 49 50 52 51 51 51 52 53 55 56 57 59 60 60 61 62 62 62 62 62 62
47 48 49 50 51 52 53 53 52 52 52 52 52 51 50 49 49 48 48 48 48 48 49 50 50 50 50 51 53 54 55 56 57 58 59 59 60 60 61 60 59 59 59
51 51 52 52 53 53 53 52 51 51 51 50 49 49 48 47 47 47 47 47 47 48 48 49 50 50 52 53 53 55 55 56 57 57 58 58 59 59 60 59 58 57 56
53 53 53 54 54 54 53 52 51 51 51 50 50 49 48 48 48 48 48 48 48 48 49 50 50 51 52 54 55 55 55 55 56 56 57 57 58 58 58 57 56 55 54
56 56 56 56 56 56 55 54 52 52 51 50 50 49 49 49 49 49 50 50 50 50 50 51 52 53 54 55 55 55 55 55 55 55 55 56 57 56 56 55 54 53 52
60 60 59 58 58 57 56 54 53 52 51 50 50 50 50 51 51 51 51 51 51 51 52 53 54 54 55 55 55 55 54 54 53 54 54 55 55 54 53 52 51 50 49
64 63 61 60 58 58 57 55 53 52 51 51 51 52 52 52 52 53 53 53 53 54 54 55 55 56 56 55 55 54 53 52 52 52 53 53 53 52 50 49 48 48 47
66 64 62 60 58 57 56 56 54 53 52 53 53 53 53 53 54 54 54 54 55 55 55 55 56 56 55 55 54 52 51 51 50 50 51 51 50 49 48 47 46 45 44
65 63 61 59 57 57 56 55 55 54 54 54 53 53 53 54 54 54 54 55 55 55 55 56 55 55 54 53 52 50 49 49 48 48 48 48 47 47 45 44 43 43 42
63 61 59 58 57 56 56 56 56 55 54 53 53 53 53 53 53 53 53 54 54 54 54 54 54 54 53 52 50 49 47 47 46 45 46 45 45 44 42 41 41 41 40